EDT,Max TemperatureF,Mean TemperatureF,Min TemperatureF,Max Dew PointF,MeanDew PointF,Min DewpointF,Max Humidity, Mean Humidity, Min Humidity, Max Sea Level PressureIn, Mean Sea Level PressureIn, Min Sea Level PressureIn, Max VisibilityMiles, Mean VisibilityMiles, Min VisibilityMiles, Max Wind SpeedMPH, Mean Wind SpeedMPH, Max Gust SpeedMPH,PrecipitationIn, CloudCover, Events, WindDirDegrees
2013-10-1,78,66,54,61,59,54,100,79,47,30.18,30.12,30.08,10,8,0,10,1,,0.00,2,Fog,242
2013-10-2,81,68,55,66,59,55,100,80,45,30.19,30.14,30.11,10,10,5,9,3,,0.00,1,,311
2013-10-3,80,68,57,63,61,57,100,79,45,30.17,30.14,30.10,10,10,7,10,1,18,0.00,1,,200
2013-10-4,83,70,57,66,62,57,100,80,47,30.19,30.15,30.12,10,9,4,8,2,,0.00,1,,272
2013-10-5,83,71,59,66,63,59,100,80,49,30.18,30.13,30.07,10,9,5,8,3,,0.00,0,,278
2013-10-6,81,70,58,66,62,57,100,81,53,30.09,30.02,29.92,10,8,4,16,4,21,0.00,2,,186
2013-10-7,75,64,53,67,60,50,100,85,57,30.05,29.91,29.85,10,9,1,9,3,22,0.97,5,Rain-Thunderstorm,336
2013-10-8,69,60,51,52,49,45,94,69,49,30.24,30.15,30.04,10,10,10,14,4,20,0.00,2,,13
2013-10-9,72,60,47,49,45,40,97,62,31,30.27,30.21,30.14,10,10,10,13,5,17,0.00,0,,9
2013-10-10,78,61,44,55,50,44,99,70,39,30.17,30.08,30.02,10,10,10,13,3,17,0.00,1,,340
2013-10-11,80,66,52,56,53,50,97,68,37,30.05,30.00,29.95,10,10,10,10,5,17,0.00,1,,330
2013-10-12,72,62,53,63,57,52,100,80,54,30.13,30.06,30.00,10,10,10,9,2,,0.00,6,,83
2013-10-13,75,68,62,63,61,60,99,84,64,30.25,30.19,30.13,10,10,7,8,3,,0.00,7,Rain,83
2013-10-14,70,65,60,61,59,57,90,83,68,30.28,30.23,30.18,10,10,7,9,5,,0.00,7,,25
2013-10-15,69,62,55,59,56,54,97,83,63,30.24,30.16,30.09,10,10,10,7,4,,0.00,3,,359
2013-10-16,70,60,51,59,56,51,99,84,61,30.11,30.05,29.99,10,9,3,9,1,,0.00,2,,215
2013-10-17,68,64,59,64,61,59,100,95,80,29.99,29.94,29.88,10,8,0,10,2,22,0.05,8,Fog-Rain,202
2013-10-18,69,59,49,61,53,48,100,79,49,30.06,29.99,29.93,10,9,0,9,2,,0.00,2,Fog,133
2013-10-19,62,56,49,59,56,49,100,95,81,29.99,29.94,29.88,10,6,0,6,0,,0.02,6,Fog-Rain,218
2013-10-20,64,54,43,48,43,39,98,70,43,30.12,30.05,29.96,10,10,10,8,4,,0.00,0,,353
2013-10-21,66,52,39,52,47,39,99,81,54,30.17,30.10,30.02,10,10,7,9,2,23,0.00,1,,218
2013-10-22,68,59,50,55,52,50,100,84,58,30.03,29.93,29.83,10,8,2,10,2,,0.00,5,Rain,171
2013-10-23,62,49,36,52,38,29,100,65,32,30.06,29.86,29.76,10,9,0,22,5,33,0.00,1,Fog,294
2013-10-24,58,44,30,38,33,30,98,69,40,30.17,30.12,30.06,10,10,7,9,2,,0.00,4,,267
2013-10-25,52,42,31,34,28,22,89,59,36,30.38,30.31,30.17,10,10,10,12,5,20,0.00,0,,3
2013-10-26,56,41,26,37,30,25,97,69,36,30.38,30.24,30.08,10,10,10,13,3,17,0.00,0,,202
2013-10-27,68,52,36,49,43,36,97,72,46,30.14,30.10,30.06,10,10,10,14,2,22,0.00,2,,173
2013-10-28,69,58,46,55,50,46,99,82,50,30.27,30.21,30.12,10,9,5,7,1,,0.00,6,Rain,253
2013-10-29,71,62,52,55,52,50,99,72,47,30.35,30.29,30.25,10,9,4,10,2,,0.00,3,,153
2013-10-30,77,64,51,57,54,51,98,76,46,30.31,30.25,30.17,10,10,5,13,2,21,0.00,2,,207
2013-10-31,66,59,52,61,56,51,99,87,68,30.20,30.08,29.91,10,9,4,9,1,20,0.00,3,,182